Location: Tel Aviv
(32.0670°N, 34.7670°E)
Time: 21:47:02
(UTC+02:00)

ISS - Visible Passes

Search period start: 17 December 2017 00:00
Search period end: 27 December 2017 00:00
Orbit: 402 x 406 km, 51.6° (Epoch: 18 December)

Date Brightness Start Highest point End Pass type
(mag) Time Alt. Az. Time Alt. Az. Time Alt. Az.
17 Dec -3.9 17:17:50 10° NW 17:21:05 65° NE 17:24:20 10° SE visible
18 Dec -0.7 18:02:49 10° W 18:05:04 17° SW 18:07:19 10° S visible
19 Dec -2.1 17:09:53 10° WNW 17:12:57 38° SW 17:16:01 10° SSE visible
25 Dec -0.6 05:25:56 10° SSE 05:27:59 16° SE 05:30:03 10° E visible
26 Dec -3.9 06:08:35 10° SW 06:11:50 73° NW 06:15:07 10° NE visible
